Location: Grisols
(45.0093°N, 3.1167°E)
Time: 23:55:35
(UTC+00:00)

Abrixas rocket - Pass Details

Date: 21 October 2019
Orbit: 359 x 367 km, 48.4° (Epoch: 22 November)

Event Time Altitude Azimuth Distance (km) Brightness Sun altitude
Rises 17:46:26 0° 253° (WSW) 2,222 7.9 -10.1°
Reaches altitude 10° 17:48:29 10° 256° (WSW) 1,374 6.4 -10.5°
Maximum altitude 17:51:34 74° 342° (NNW) 392 2.1 -11.0°
Enters shadow 17:53:43 18° 65° (ENE) 1,001 3.6 -11.4°
